#timestamp,LO_Frequency,Hit 
1599591615.0,286046996.5,N
1599591615.9,286046996.5,N
1599591635.8,286046996.9,N
1599591655.6,286046997.1,N
1599591675.4,286046996.8,N
1599591695.3,286046996.9,N
1599591715.1,286046996.9,N
1599591716.0,286046996.9,N
1599591735.8,286046997.3,N
1599591755.7,286046999.6,N
1599591775.5,286046997.2,N
1599591795.3,286046996.7,N
1599591815.2,286046997.3,N
1599591835.9,286046997.8,N
1599591855.7,286046997.5,N
1599591875.6,286046997.7,N
1599591895.4,286046997.0,N
1599591915.2,286046996.9,N
1599591935.1,286046999.2,N
1599591936.0,286046999.2,N
1599591955.8,286046998.0,N
1599591975.6,286046996.6,P
1599591995.5,286046998.7,N
1599592015.3,286046999.0,N
1599592035.1,286046998.2,N
1599592055.9,286047001.1,N
1599592075.7,286046998.8,N
1599592095.5,286046999.6,N
1599592115.4,286046998.9,N
1599592135.2,286046997.1,N
1599592155.0,286046996.6,N
1599592155.9,286046996.6,N
1599592175.8,286046999.5,N
1599592195.6,286046997.1,N
1599592215.4,286046997.8,N
1599592235.3,286046997.2,N
1599592255.1,286046998.0,N
1599592256.0,286046998.0,N
1599592275.8,286046997.4,N
1599592295.7,286046997.2,N
1599592315.5,286046995.8,P
1599592335.3,286046999.4,N
1599592355.2,286046997.3,N
1599592375.9,286046997.2,N
1599592395.7,286046998.7,N
1599592415.6,286046998.4,N
1599592435.4,286046999.6,N
1599592455.2,286046999.5,N
1599592475.1,286046999.2,N
1599592476.0,286046999.2,N
1599592495.8,286046998.6,N
1599592515.6,286046999.1,N
1599592535.5,286046998.3,N
1599592555.3,286046999.2,N
1599592575.1,286046999.1,N
1599592595.9,286046999.6,N
1599592615.7,286046999.5,N
1599592635.5,286046996.9,P
1599592655.4,286047001.1,N
1599592675.2,286047001.1,N
1599592695.0,286046998.4,N
1599592695.9,286046998.4,N
1599592715.8,286047001.2,N
1599592735.6,286046999.9,N
1599592755.4,286047000.8,N
1599592775.3,286047001.0,N
1599592795.1,286046998.5,N
1599592796.0,286046998.5,N
1599592815.8,286046998.6,N
1599592835.7,286046999.3,N
1599592855.5,286046999.4,N
1599592875.3,286046999.0,N
1599592895.2,286046999.0,N
1599592915.9,286046996.5,N
1599592935.7,286046999.3,N
1599592955.6,286046997.4,N
1599592975.4,286046996.5,N
1599592995.2,286046999.5,N
1599593015.0,286046999.5,N
1599593016.0,286046999.5,N
1599593035.8,286046999.4,N
1599593055.6,286046999.6,N
1599593075.4,286046998.3,N
1599593095.3,286046999.1,N
1599593115.1,286046999.4,N
1599593135.8,286046999.6,N
1599593155.7,286046999.6,N
1599593175.5,286046997.2,N
1599593195.3,286046997.0,N
1599593215.2,286046997.1,N
1599593235.0,286046998.0,N
1599593235.9,286046998.0,N
1599593255.7,286046997.7,N
1599593275.6,286046997.6,N
1599593295.4,286046995.6,P
1599593315.3,286046997.9,N
1599593335.1,286046996.6,N
1599593336.0,286046996.6,N
1599593355.8,286046997.8,N
1599593375.7,286046997.1,N
1599593395.5,286046998.0,N
1599593415.3,286046995.2,P
1599593435.2,286046997.0,N
1599593455.9,286046998.8,N
1599593475.7,286046999.4,N
1599593495.6,286046998.6,N
1599593515.4,286046996.5,N
1599593535.2,286046996.6,N
1599593555.1,286046997.0,N
1599593556.0,286046997.0,N
1599593575.8,286046997.4,N
1599593595.6,286046996.6,P
1599593615.5,286046998.1,P
1599593635.3,286047000.3,N
1599593655.1,286046998.5,N
1599593675.9,286047000.7,N
1599593695.7,286047000.3,N
1599593715.5,286047001.1,N
1599593735.4,286046998.7,N
1599593755.2,286047001.0,N
1599593775.0,286047000.7,N
1599593775.9,286047000.7,N
1599593795.8,286047000.4,N
1599593815.6,286047000.6,N
1599593835.4,286046998.6,N
1599593855.3,286047000.5,N
1599593875.1,286047000.5,N
1599593876.0,286047000.5,N
1599593895.8,286046998.1,N
1599593915.7,286046998.4,N
1599593935.5,286047001.0,N
1599593955.3,286047000.5,N
1599593975.1,286046998.1,N
1599593995.9,286047001.1,N
1599594015.7,286046998.3,N
1599594035.5,286047001.0,N
1599594055.4,286047000.5,N
1599594075.2,286046998.7,N
1599594095.0,286046998.5,N
1599594095.9,286046998.5,N
1599594115.8,286047000.7,N
1599594135.6,286047001.0,N
1599594155.4,286047002.4,N
1599594175.3,286047000.4,N
1599594195.1,286047000.2,N
1599594215.8,286047001.2,N
1599594235.7,286046999.8,N
1599594255.5,286046999.8,N
1599594275.3,286047002.3,N
1599594295.2,286047002.2,N
1599594315.9,286046999.7,N
1599594335.7,286047001.7,N
1599594355.6,286047002.5,N
1599594375.4,286047000.2,N
1599594395.2,286047000.1,N
1599594415.1,286047002.6,N
1599594416.0,286047002.6,N
1599594435.8,286047000.2,N
1599594455.6,286047002.3,N
1599594475.5,286047001.9,N
1599594495.3,286047002.8,N
1599594515.1,286047000.2,N
1599594535.9,286047002.1,N
1599594555.7,286047002.7,N
1599594575.5,286047001.4,N
1599594595.4,286047000.2,N
1599594615.2,286047002.3,N
1599594635.0,286047001.5,N
1599594635.9,286047001.5,N
1599594655.8,286047001.6,N
1599594675.6,286047002.1,N
1599594695.4,286047002.1,N
1599594715.2,286047001.5,N
1599594735.1,286047004.4,P
1599594736.0,286047004.4,N
1599594755.8,286047001.8,N
1599594775.7,286047001.8,N
1599594795.5,286047001.6,N
1599594815.3,286047001.4,N
1599594835.2,286047004.0,P
1599594855.9,286046998.6,N
1599594875.7,286046999.9,N
1599594895.6,286047000.0,N
1599594915.4,286047002.7,N
1599594935.2,286047000.9,N
1599594955.1,286047001.0,N
1599594956.0,286047001.0,N
1599594975.8,286047000.6,N
1599594995.6,286046999.9,N
1599595015.5,286047000.2,N
1599595035.3,286047000.9,N
1599595055.1,286047002.8,N
1599595075.9,286047000.7,N
1599595095.7,286046999.7,N
1599595115.5,286047000.9,N
1599595135.3,286047000.5,N
1599595155.2,286047000.2,N
1599595175.0,286047002.3,N
1599595175.9,286047002.3,N
1599595195.7,286047002.7,N
